User: anonymous   Login
Location: ????
(30.1475°N, 31.1342°E)
Time: 22:45:15
(UTC+00:00)
Language:

Cosmos 1833 Rocket - Orbit

View from above orbital plane
View from above orbital plane
View from above satellite
View from above satellite

Ground track
Ground track

The orbit data is extracted from the following two-line orbital elements,

1 17590U 87027B   23028.58353668  .00000305  00000-0  17622-3 0  9994
2 17590  71.0033 149.9091 0003446  31.9987 328.1345 14.16854843854440
Epoch (UTC): 28 January 2023 14:00:17
Eccentricity: 0.0003446
inclination: 71.0033°
perigee height: 833 km
apogee height: 838 km
right ascension of ascending node: 149.9091°
argument of perigee: 31.9987°
revolutions per day: 14.16854843
mean anomaly at epoch: 328.1345°
orbit number at epoch: 85444

The dashed part of the orbit path shows where the satellite is in the earth's shadow,  

DLR